Regional Weather Roundup
Issued by NWS Nashville, TN

Home | Current Version | Previous Version | Text Only | Print | Product List | Glossary On
Versions: 1 2 3 4 5 6 7 8 9 10 11 12 13 14 15 16 17 18 19 20 21 22 23 24 25 26 27 28 29 30 31 32 33 34 35 36 37 38 39 40 41 42 43 44 45 46 47 48 49 50
000
ASUS44 KOHX 280915
RWROHX
MIDDLE TENNESSEE HOURLY WEATHER ROUNDUP
NATIONAL WEATHER SERVICE NASHVILLE TN
400 AM CDT SAT MAR 28 2015

NOTE: "FAIR" INDICATES FEW OR NO CLOUDS BELOW 12,000 FEET WITH
NO SIGNIFICANT WEATHER AND/OR OBSTRUCTIONS TO VISIBILITY.

* THESE REPORTS ARE NOT UNDER NWS QUALITY CONTROL AND MAY NOT
  REPORT WEATHER SUCH AS PRECIPITATION AND FOG.


TNZ005>011-023>034-057-059-062>066-078-080-281000
...NORTHERN MIDDLE TENNESSEE...

CITY           SKY/WX    TMP DP  RH WIND       PRES   REMARKS
CLARKSVILLE    CLEAR     28  20  71 N3        30.18R
CROSSVILLE     MOCLDY    28  20  71 NW7G23    30.04S WCI  21
GALLATIN         N/A     28  19  69 N3        30.16R
NASHVILLE      CLEAR     30  19  63 N6        30.16S WCI  24
PORTLAND       CLEAR     25  18  74 NW7       30.13  WCI  17
SMYRNA         CLEAR     31  19  61 N9        30.17S WCI  23
SPARTA         CLEAR     28  21  74 VRB3      30.09S
$$
TNZ056-058-060-061-075>077-079-093>097-281000
...SOUTHERN MIDDLE TENNESSEE...

CITY           SKY/WX    TMP DP  RH WIND       PRES   REMARKS
COLUMBIA       CLEAR     28  28 100 CALM      30.13S
LEWISBURG      CLEAR     28  20  72 CALM      30.14S
MCMINNVILLE    CLOUDY    30  18  59 NW7       30.11R WCI  23
MURFREESBORO   PTCLDY    31  18  58 N5        30.15R WCI  26
SHELBYVILLE    CLEAR     28  21  74 CALM      30.15R
TULLAHOMA      CLEAR     27  18  69 N5        30.11F WCI  21
WINCHESTER     CLEAR     28  19  69 N6        30.12R WCI  22
$$


...KEY TO REMARKS...
VSB - VISIBILITY IN MILES
WCI - WIND CHILL INDEX
HX  - HEAT INDEX




USA.gov is the U.S. government's official web portal to all federal, state and local government web resources and services.